Location: Santaluz Observatory
(32.9930°N, 117.1510°W)
Time: 15:26:41
(UTC-07:00)

Daily predictions for brighter satellites

Satellite Brightness Start Highest point End
(mag) Time Altitude Azimuth Time Altitude Azimuth Time Altitude Azimuth
COSMOS 2428 3.9 19:42:04 10° SW 19:47:36 50° WNW 19:53:10 10° N
Genesis I 4.3 19:46:25 10° N 19:50:03 31° NE 19:53:39 10° ESE
Cosmos 2237 Rocket 2.3 19:45:47 10° S 19:51:12 53° ESE 19:56:39 10° NNE
Cosmos 1844 3.8 19:46:38 10° NNW 19:52:20 64° ENE 19:58:02 10° SSE
Cosmos 1340 3.3 19:48:46 10° SSW 19:52:30 61° W 19:56:16 10° N
Cosmos 1633 Rocket 3.5 19:50:08 10° N 19:54:16 42° E 19:58:25 10° SSE
EO 1 Del DPAF 4.2 19:53:13 10° N 19:56:56 52° WNW 20:00:38 10° SSW
Timation 1 Rocket 4.3 19:53:10 10° NNW 19:59:09 79° ENE 20:05:07 10° SSE
Meteor 1-27 4.3 19:54:21 10° S 19:59:59 61° E 20:05:33 10° NNE
Meteor 2-15 Rocket 4.5 19:56:35 10° N 20:02:40 66° E 20:08:42 10° SSE
Meteor 2-16 Rocket 4.5 19:57:00 10° S 20:03:00 60° E 20:09:01 10° NNE
OAO 2 Rocket 3.7 19:57:50 10° W 20:03:01 62° SSW 20:07:53 11° ESE
Cosmos 1515 Rocket 4.1 19:59:33 10° SSE 20:03:39 37° E 20:07:46 10° NNE
Cosmos 2278 Rocket 3.0 20:00:59 10° N 20:06:06 34° ENE 20:10:53 11° SE
ASTRO E2 2.9 20:04:25 10° WSW 20:08:21 56° S 20:11:55 12° E
OAO 3 Copernicus 4.3 20:06:08 10° WSW 20:11:11 84° SSE 20:16:14 10° ENE
Cosmos 1825 3.6 20:10:09 10° NNE 20:12:59 20° ENE 20:14:41 15° ESE
Hubble Space Telescope 2.7 20:11:28 10° S 20:13:20 13° SSE 20:14:24 12° SE
Cosmos 1371 Rocket 4.3 20:08:31 10° S 20:13:34 48° ESE 20:18:41 10° NNE
FREGAT/IRIS 4.4 20:14:52 10° SSW 20:17:34 33° W 20:20:16 10° NNW
Envisat 3.0 20:12:56 10° SSE 20:18:00 83° ENE 20:23:06 10° N
Cosmos 1328 Rocket 3.6 20:14:13 10° S 20:18:37 90° N 20:23:05 10° N
OAO 3 Rocket 4.3 20:18:54 10° SSW 20:22:39 23° SSE 20:24:33 18° ESE
Cosmos 2228 Rocket 3.0 20:20:14 10° S 20:24:34 68° E 20:28:57 10° NNE
Nadezhda 3 Rocket 4.2 20:20:38 10° N 20:26:58 78° W 20:33:19 10° S
CZ-4C R/B 3.3 20:29:40 19° ESE 20:29:40 19° ESE 20:32:56 10° ENE
Meteor 2-10 Rocket 4.2 20:27:07 10° SSE 20:32:23 40° E 20:37:46 10° NNE
Cosmos 2056 Rocket 3.6 20:29:19 10° S 20:34:37 60° ESE 20:39:57 10° NNE
Cosmos 1408 2.9 20:31:25 10° N 20:34:59 45° E 20:36:44 25° SE
Cosmos 1470 Rocket 3.5 20:36:11 10° N 20:40:36 77° E 20:44:22 14° S
SL-16 R/B 2.2 20:38:13 10° S 20:43:44 58° ESE 20:49:18 10° NNE
Sakura Rocket 3.5 20:39:26 10° W 20:44:34 47° S 20:46:16 30° SE
YAOGAN 6 2.7 20:45:52 17° S 20:48:34 72° W 20:52:13 10° NNW
ERS-2 2.9 20:45:07 10° S 20:48:39 51° W 20:52:14 10° NNW
Cosmos 1624 Rocket 4.0 20:45:49 10° SSW 20:51:00 87° WNW 20:56:13 10° NNE
Resurs 01 Rocket 1.6 20:50:09 20° SSE 20:53:13 90° ENE 20:57:39 10° NNW
Cosmos 1151 Rocket 3.8 20:50:02 10° SSW 20:54:09 51° W 20:58:19 10° N
Cosmos 405 4.2 20:51:22 10° NNE 20:53:43 26° ENE 20:53:43 26° ENE
Cosmos 2098 Rocket 2.9 20:50:20 10° S 20:55:09 71° E 20:58:57 10° NNE
SJ-11-01 4.2 20:54:14 24° SSE 20:57:01 82° ENE 21:01:42 10° N
Gblst 52 Del rocket 4.1 20:51:44 10° SSW 20:57:24 61° SE 21:02:48 10° NE
Spot 2 Rocket 3.4 20:57:36 26° SSE 21:00:29 78° ENE 21:05:35 10° N
ATLAS 2AS CENTAUR R/B 3.2 20:53:07 10° NW 21:00:45 65° WSW 21:06:02 19° SSE
Cosmos 1933 Rocket 4.0 21:04:33 10° NNW 21:08:50 58° W 21:11:32 21° SSW
Cosmos 1869 4.1 21:07:30 10° SSW 21:11:24 51° W 21:15:19 10° N
Cosmos 1441 Rocket 3.4 21:12:11 54° NE 21:12:11 54° NE 21:15:18 10° NNE
Cosmos 1727 Rocket 3.9 21:10:03 10° N 21:16:12 66° E 21:18:24 40° SSE
Cosmos 1707 Rocket 4.2 21:19:11 40° NE 21:19:11 40° NE 21:22:19 10° NNE
USA 186 4.3 21:19:19 10° WSW 21:19:39 10° W 21:20:02 10° W
Cosmos 2369 Rocket 4.4 21:21:15 10° NE 21:22:21 11° NE 21:22:25 11° NE
Cosmos 2297 3.8 21:16:46 10° NNW 21:22:24 58° ENE 21:23:18 51° ESE
Cosmos 2344 3.4 21:19:45 10° SSW 21:27:29 80° ESE 21:35:26 10° NNE
Haruka 4.3 21:24:04 10° W 21:28:07 21° SW 21:28:21 21° SSW
ERS-1 Rocket 3.8 21:29:53 36° NE 21:29:53 36° NE 21:33:53 10° N
NOSS 3-4 (A) 3.9 21:24:22 10° NNW 21:31:33 68° ENE 21:33:44 48° ESE
NOSS 3-4 (C) 3.9 21:24:29 10° NNW 21:31:39 67° ENE 21:33:48 48° ESE
Cosmos 1869 Rocket 3.8 21:27:40 10° N 21:31:16 56° NNE 21:31:16 56° NNE
Cosmos 1420 Rocket 3.9 21:35:19 67° E 21:35:19 67° E 21:40:20 10° NNE
ATLAS 5 CENTAUR R/B 4.4 21:36:19 10° NNE 21:39:30 14° NE 21:40:22 14° NE
Cosmos 407 Rocket 3.5 21:39:16 10° NNW 21:44:22 70° WSW 21:44:42 68° SW
Cosmos 405 Rocket 3.8 21:45:42 43° WNW 21:45:42 43° WNW 21:49:02 10° N
ASTRO E2 4.4 21:44:46 10° W 21:46:48 28° W 21:46:48 28° W
Cosmos 2278 Rocket 3.9 21:45:18 10° NW 21:49:58 27° WSW 21:52:47 18° SW
SPOT 5 4.4 21:54:00 23° NNE 21:54:00 23° NNE 21:55:59 10° N
Lacrosse 5 4.1 21:51:09 10° N 21:53:47 14° NNE 21:53:59 14° NE
H-2A R/B 2.4 22:04:34 59° NNW 22:04:34 59° NNW 22:08:34 10° NNW
Cosmos 676 Rocket 4.4 22:03:13 10° NNW 22:07:35 58° NW 22:07:35 58° NW
MetOp-B 4.5 22:10:38 61° WNW 22:10:38 61° WNW 22:15:27 10° NNW
ARGOS 3.8 22:14:36 50° W 22:14:36 50° W 22:19:33 10° NNW
CZ-4C R/B 3.1 22:14:15 22° WSW 22:17:13 43° NW 22:22:37 10° NNE
Cosmos 1943 Rocket 4.0 22:19:05 10° N 22:21:35 20° NNE 22:21:35 20° NNE
Cosmos 1934 Rocket 4.3 22:25:38 57° N 22:25:38 57° N 22:30:23 10° N
ATLAS 2A CENTAUR R/B 3.7 22:22:19 10° WSW 22:38:54 61° SSW 22:38:54 61° SSW
Terra 4.2 22:57:52 20° N 22:57:52 20° N 22:59:16 10° N
Cosmos 2369 Rocket 3.8 23:01:27 10° NNW 23:04:12 30° NNW 23:04:12 30° NNW
USA 267 4.1 23:15:27 10° NNE 23:20:46 44° NNW 23:20:46 44° NNW
ATLAS 5 CENTAUR R/B 3.9 23:18:46 10° NNW 23:21:55 33° NNW 23:21:55 33° NNW
